{"data":{"norad_id":55381,"intl_designator":"2023-013BC","name":"STARLINK-5575","alt_names":[],"object_type":"PAYLOAD","status":"ACTIVE","operator":null,"country":"US","launch_date":"2023-01-26","launch_site_code":"AFETR","launch_vehicle":null,"mission":null,"orbit_class":"UNKNOWN","rcs_meters":null,"size_class":null,"mass_kg":null,"dimensions":null,"purposes":["comms"],"wikipedia_slug":null,"has_3d_model":false,"image_url":null,"decayed_at":null,"tle_current":{"epoch":"2026-09-20T10:23:44.611872Z","epoch_age_seconds":102433,"freshness":"FRESH","line1":"1 55381U 23013BC  26263.43315523 -.00000252  00000+0  36063-6 0  9999","line2":"2 55381  43.0040 298.5586 0001767 278.3362  81.7289 15.27573888201282","mean_motion":15.27573888,"eccentricity":0.0001767,"inclination_deg":43.004,"raan_deg":298.5586,"arg_perigee_deg":278.3362,"mean_anomaly_deg":81.7289,"bstar":3.6063e-7,"rev_number":20128,"period_min":94.267125885828,"perigee_km":481.85502281039,"apogee_km":484.27977244452,"semimajor_km":6861.2043976275,"source":"CELESTRAK","updated_at":"2026-09-21T09:00:33.211815Z"}}}